TimeCDT,TemperatureF,Dew PointF,Humidity,Sea Level PressureIn,VisibilityMPH,Wind Direction,Wind SpeedMPH,Gust SpeedMPH,PrecipitationIn,Events,Conditions,WindDirDegrees,DateUTC
12:58 AM,61.9,46.9,58,29.70,10.0,West,16.1,23.0,N/A,,Clear,260,2013-06-01 05:58:00
1:58 AM,59.7,47.5,64,29.69,10.0,West,10.4,-,N/A,,Clear,260,2013-06-01 06:58:00
2:58 AM,59.2,47.7,66,29.67,10.0,West,11.5,-,N/A,,Clear,260,2013-06-01 07:58:00
3:58 AM,58.5,47.8,68,29.68,10.0,WSW,10.4,-,N/A,,Clear,250,2013-06-01 08:58:00
4:58 AM,57.6,48.4,71,29.68,10.0,West,10.4,-,N/A,,Clear,270,2013-06-01 09:58:00
5:58 AM,57.2,50.0,77,29.70,10.0,WSW,6.9,-,N/A,,Mostly Cloudy,250,2013-06-01 10:58:00
6:28 AM,57.2,50.0,77,29.69,10.0,West,10.4,-,N/A,,Mostly Cloudy,260,2013-06-01 11:28:00
6:58 AM,57.7,49.3,73,29.70,10.0,West,12.7,-,N/A,,Mostly Cloudy,270,2013-06-01 11:58:00
7:13 AM,57.2,50.0,77,29.71,10.0,West,15.0,-,N/A,,Light Drizzle,260,2013-06-01 12:13:00
7:23 AM,57.2,50.0,77,29.70,10.0,West,13.8,20.7,N/A,,Scattered Clouds,270,2013-06-01 12:23:00
7:48 AM,59.0,50.0,72,29.71,10.0,West,12.7,-,N/A,,Mostly Cloudy,280,2013-06-01 12:48:00
7:53 AM,59.0,51.8,77,29.71,10.0,West,9.2,-,N/A,,Scattered Clouds,270,2013-06-01 12:53:00
7:58 AM,58.6,50.9,75,29.72,10.0,WNW,10.4,-,0.00,,Scattered Clouds,290,2013-06-01 12:58:00
8:03 AM,59.0,51.8,77,29.72,10.0,West,12.7,17.3,N/A,,Mostly Cloudy,280,2013-06-01 13:03:00
8:18 AM,59.0,51.8,77,29.72,10.0,West,12.7,19.6,N/A,,Mostly Cloudy,270,2013-06-01 13:18:00
8:23 AM,59.0,51.8,77,29.72,10.0,West,15.0,-,N/A,,Mostly Cloudy,280,2013-06-01 13:23:00
8:33 AM,60.8,53.6,77,29.72,10.0,West,15.0,20.7,N/A,,Mostly Cloudy,280,2013-06-01 13:33:00
8:48 AM,62.6,53.6,72,29.73,10.0,WNW,16.1,21.9,N/A,,Mostly Cloudy,290,2013-06-01 13:48:00
8:58 AM,61.3,53.8,76,29.73,10.0,West,12.7,-,N/A,,Mostly Cloudy,280,2013-06-01 13:58:00
9:58 AM,62.6,55.2,77,29.75,10.0,WNW,15.0,24.2,N/A,,Overcast,290,2013-06-01 14:58:00
10:58 AM,61.3,53.2,75,29.77,10.0,WNW,15.0,27.6,N/A,,Overcast,300,2013-06-01 15:58:00
11:19 AM,60.8,53.6,77,29.78,10.0,WNW,18.4,24.2,N/A,Rain,Light Rain,290,2013-06-01 16:19:00
11:28 AM,59.0,53.6,82,29.79,10.0,NW,20.7,27.6,N/A,,Mostly Cloudy,310,2013-06-01 16:28:00
11:33 AM,59.0,53.6,82,29.79,10.0,WNW,18.4,27.6,N/A,,Light Drizzle,300,2013-06-01 16:33:00
11:42 AM,60.8,53.6,77,29.80,10.0,NW,20.7,26.5,N/A,,Mostly Cloudy,310,2013-06-01 16:42:00
11:46 AM,60.8,53.6,77,29.80,10.0,WNW,18.4,26.5,N/A,,Light Drizzle,300,2013-06-01 16:46:00
11:56 AM,59.0,55.4,88,29.80,7.0,WNW,13.8,-,N/A,,Mostly Cloudy,300,2013-06-01 16:56:00
11:58 AM,59.0,55.4,88,29.81,7.0,WNW,15.0,-,0.00,,Mostly Cloudy,300,2013-06-01 16:58:00
11:59 AM,59.0,55.4,88,29.80,9.0,WNW,17.3,21.9,N/A,,Light Drizzle,290,2013-06-01 16:59:00
12:12 PM,59.0,55.4,88,29.81,10.0,WNW,13.8,-,N/A,,Mostly Cloudy,300,2013-06-01 17:12:00
12:36 PM,60.8,53.6,77,29.82,10.0,WNW,23.0,27.6,N/A,,Light Drizzle,300,2013-06-01 17:36:00
12:56 PM,59.0,53.6,82,29.82,10.0,WNW,23.0,28.8,N/A,,Mostly Cloudy,300,2013-06-01 17:56:00
12:58 PM,59.0,53.6,82,29.83,10.0,WNW,23.0,28.8,0.00,,Mostly Cloudy,300,2013-06-01 17:58:00
1:21 PM,59.0,53.6,82,29.84,9.0,NW,15.0,26.5,N/A,Rain,Light Rain,310,2013-06-01 18:21:00
1:33 PM,59.0,53.6,82,29.84,10.0,WNW,18.4,21.9,N/A,,Mostly Cloudy,300,2013-06-01 18:33:00
1:34 PM,59.0,53.6,82,29.84,10.0,WNW,17.3,-,N/A,,Light Drizzle,300,2013-06-01 18:34:00
1:58 PM,57.7,55.4,92,29.86,6.0,WNW,17.3,23.0,0.01,Rain,Light Rain,300,2013-06-01 18:58:00
2:43 PM,57.2,55.4,94,29.86,10.0,NW,10.4,-,N/A,,Overcast,310,2013-06-01 19:43:00
2:58 PM,58.5,54.9,88,29.87,10.0,NW,19.6,24.2,0.02,,Overcast,320,2013-06-01 19:58:00
3:12 PM,57.2,53.6,88,29.87,10.0,NW,15.0,23.0,N/A,,Light Drizzle,310,2013-06-01 20:12:00
3:46 PM,57.2,55.4,94,29.88,10.0,NW,10.4,-,N/A,,Overcast,310,2013-06-01 20:46:00
3:58 PM,58.5,55.9,91,29.89,10.0,NW,9.2,17.3,0.00,,Overcast,310,2013-06-01 20:58:00
4:58 PM,60.3,52.9,77,29.90,10.0,NW,20.7,26.5,N/A,,Overcast,320,2013-06-01 21:58:00
5:58 PM,60.4,51.4,72,29.93,10.0,NNW,15.0,25.3,N/A,,Overcast,330,2013-06-01 22:58:00
6:58 PM,59.0,50.0,72,29.94,10.0,NW,21.9,28.8,N/A,,Scattered Clouds,310,2013-06-01 23:58:00
7:13 PM,59.0,50.0,72,29.94,10.0,NW,13.8,23.0,N/A,,Mostly Cloudy,310,2013-06-02 00:13:00
7:58 PM,57.4,50.2,77,29.97,10.0,NW,11.5,20.7,N/A,,Mostly Cloudy,320,2013-06-02 00:58:00
8:58 PM,56.8,49.1,75,30.00,10.0,NW,16.1,24.2,N/A,,Mostly Cloudy,310,2013-06-02 01:58:00
9:58 PM,56.3,47.8,73,30.01,10.0,NW,16.1,24.2,N/A,,Overcast,310,2013-06-02 02:58:00
10:58 PM,55.6,48.2,76,30.03,10.0,NNW,13.8,19.6,N/A,,Overcast,330,2013-06-02 03:58:00
11:58 PM,55.2,48.4,78,30.03,10.0,NW,10.4,-,N/A,,Overcast,320,2013-06-02 04:58:00